Year,Month,Day,Hour,Minute,Value (Times are PST for temperature in C)
2017,09,04,00,00,23.70
2017,09,04,00,01,23.70
2017,09,04,00,02,23.60
2017,09,04,00,03,23.60
2017,09,04,00,04,23.60
2017,09,04,00,05,23.60
2017,09,04,00,06,23.70
2017,09,04,00,07,23.60
2017,09,04,00,08,23.60
2017,09,04,00,09,23.50
2017,09,04,00,10,23.40
2017,09,04,00,11,23.30
2017,09,04,00,12,23.30
2017,09,04,00,13,23.20
2017,09,04,00,14,23.10
2017,09,04,00,15,23.10
2017,09,04,00,16,23.20
2017,09,04,00,17,23.20
2017,09,04,00,18,23.20
2017,09,04,00,19,23.30
2017,09,04,00,20,23.30
2017,09,04,00,21,23.30
2017,09,04,00,22,23.40
2017,09,04,00,23,23.40
2017,09,04,00,24,23.40
2017,09,04,00,25,23.50
2017,09,04,00,26,23.60
2017,09,04,00,27,23.60
2017,09,04,00,28,23.60
2017,09,04,00,29,23.60
2017,09,04,00,30,23.60
2017,09,04,00,31,23.60
2017,09,04,00,32,23.60
2017,09,04,00,33,23.50
2017,09,04,00,34,23.50
2017,09,04,00,35,23.50
2017,09,04,00,36,23.50
2017,09,04,00,37,23.50
2017,09,04,00,38,23.50
2017,09,04,00,39,23.50
2017,09,04,00,40,23.50
2017,09,04,00,41,23.40
2017,09,04,00,42,23.40
2017,09,04,00,43,23.40
2017,09,04,00,44,23.40
2017,09,04,00,45,23.30
2017,09,04,00,46,23.30
2017,09,04,00,47,23.30
2017,09,04,00,48,23.20
2017,09,04,00,49,23.10
2017,09,04,00,50,23.10
2017,09,04,00,51,23.00
2017,09,04,00,52,22.90
2017,09,04,00,53,22.80
2017,09,04,00,54,22.70
2017,09,04,00,55,22.60
2017,09,04,00,56,22.50
2017,09,04,00,57,22.40
2017,09,04,00,58,22.30
2017,09,04,00,59,22.30
2017,09,04,01,00,22.20
2017,09,04,01,01,22.20
2017,09,04,01,02,22.10
2017,09,04,01,03,22.10
2017,09,04,01,04,22.00
2017,09,04,01,05,22.00
2017,09,04,01,06,22.00
2017,09,04,01,07,22.10
2017,09,04,01,08,22.10
2017,09,04,01,09,22.20
2017,09,04,01,10,22.20
2017,09,04,01,11,22.30
2017,09,04,01,12,22.30
2017,09,04,01,13,22.50
2017,09,04,01,14,22.50
2017,09,04,01,15,22.60
2017,09,04,01,16,22.60
2017,09,04,01,17,22.70
2017,09,04,01,18,22.70
2017,09,04,01,19,22.70
2017,09,04,01,20,22.70
2017,09,04,01,21,22.70
2017,09,04,01,22,22.70
2017,09,04,01,23,22.70
2017,09,04,01,24,22.70
2017,09,04,01,25,22.70
2017,09,04,01,26,22.70
2017,09,04,01,27,22.70
2017,09,04,01,28,22.70
2017,09,04,01,29,22.70
2017,09,04,01,30,22.80
2017,09,04,01,31,22.80
2017,09,04,01,32,22.90
2017,09,04,01,33,23.00
2017,09,04,01,34,23.00
2017,09,04,01,35,23.10
2017,09,04,01,36,23.10
2017,09,04,01,37,23.20
2017,09,04,01,38,23.20
2017,09,04,01,39,23.20
2017,09,04,01,40,23.20
2017,09,04,01,41,23.20
2017,09,04,01,42,23.20
2017,09,04,01,43,23.20
2017,09,04,01,44,23.20
2017,09,04,01,45,23.30
2017,09,04,01,46,23.30
2017,09,04,01,47,23.20
2017,09,04,01,48,23.20
2017,09,04,01,49,23.20
2017,09,04,01,50,23.10
2017,09,04,01,51,23.10
2017,09,04,01,52,23.00
2017,09,04,01,53,22.90
2017,09,04,01,54,22.80
2017,09,04,01,55,22.80
2017,09,04,01,56,22.80
2017,09,04,01,57,22.90
2017,09,04,01,58,22.90
2017,09,04,01,59,23.00
2017,09,04,02,00,23.10
2017,09,04,02,01,23.20
2017,09,04,02,02,23.30
2017,09,04,02,03,23.30
2017,09,04,02,04,23.40
2017,09,04,02,05,23.40
2017,09,04,02,06,23.50
2017,09,04,02,07,23.60
2017,09,04,02,08,23.60
2017,09,04,02,09,23.70
2017,09,04,02,10,23.70
2017,09,04,02,11,23.70
2017,09,04,02,12,23.70
2017,09,04,02,13,23.60
2017,09,04,02,14,23.60
2017,09,04,02,15,23.60
2017,09,04,02,16,23.60
2017,09,04,02,17,23.50
2017,09,04,02,18,23.50
2017,09,04,02,19,23.50
2017,09,04,02,20,23.50
2017,09,04,02,21,23.40
2017,09,04,02,22,23.40
2017,09,04,02,23,23.30
2017,09,04,02,24,23.30
2017,09,04,02,25,23.30
2017,09,04,02,26,23.20
2017,09,04,02,27,23.20
2017,09,04,02,28,23.20
2017,09,04,02,29,23.20
2017,09,04,02,30,23.10
2017,09,04,02,31,23.10
2017,09,04,02,32,23.10
2017,09,04,02,33,23.00
2017,09,04,02,34,23.00
2017,09,04,02,35,22.90
2017,09,04,02,36,22.90
2017,09,04,02,37,22.90
2017,09,04,02,38,22.90
2017,09,04,02,39,22.80
2017,09,04,02,40,22.80
2017,09,04,02,41,22.80
2017,09,04,02,42,22.80
2017,09,04,02,43,22.70
2017,09,04,02,44,22.70
2017,09,04,02,45,22.60
2017,09,04,02,46,22.60
2017,09,04,02,47,22.50
2017,09,04,02,48,22.50
2017,09,04,02,49,22.40
2017,09,04,02,50,22.40
2017,09,04,02,51,22.40
2017,09,04,02,52,22.30
2017,09,04,02,53,22.30
2017,09,04,02,54,22.30
2017,09,04,02,55,22.30
2017,09,04,02,56,22.30
2017,09,04,02,57,22.40
2017,09,04,02,58,22.50
2017,09,04,02,59,22.50
2017,09,04,03,00,22.50
2017,09,04,03,01,22.50
2017,09,04,03,02,22.50
2017,09,04,03,03,22.40
2017,09,04,03,04,22.30
2017,09,04,03,05,22.30
2017,09,04,03,06,22.20
2017,09,04,03,07,22.20
2017,09,04,03,08,22.20
2017,09,04,03,09,22.20
2017,09,04,03,10,22.20
2017,09,04,03,11,22.10
2017,09,04,03,12,22.10
2017,09,04,03,13,22.20
2017,09,04,03,14,22.10
2017,09,04,03,15,22.10
2017,09,04,03,16,22.10
2017,09,04,03,17,22.20
2017,09,04,03,18,22.20
2017,09,04,03,19,22.20
2017,09,04,03,20,22.20
2017,09,04,03,21,22.20
2017,09,04,03,22,22.20
2017,09,04,03,23,22.20
2017,09,04,03,24,22.20
2017,09,04,03,25,22.20
2017,09,04,03,26,22.20
2017,09,04,03,27,22.20
2017,09,04,03,28,22.20
2017,09,04,03,29,22.20
2017,09,04,03,30,22.20
2017,09,04,03,31,22.20
2017,09,04,03,32,22.20
2017,09,04,03,33,22.20
2017,09,04,03,34,22.20
2017,09,04,03,35,22.30
2017,09,04,03,36,22.40
2017,09,04,03,37,22.50
2017,09,04,03,38,22.60
2017,09,04,03,39,22.60
2017,09,04,03,40,22.60
2017,09,04,03,41,22.60
2017,09,04,03,42,22.60
2017,09,04,03,43,22.60
2017,09,04,03,44,22.70
2017,09,04,03,45,22.70
2017,09,04,03,46,22.70
2017,09,04,03,47,22.80
2017,09,04,03,48,22.80
2017,09,04,03,49,22.80
2017,09,04,03,50,22.80
2017,09,04,03,51,22.70
2017,09,04,03,52,22.70
2017,09,04,03,53,22.70
2017,09,04,03,54,22.60
2017,09,04,03,55,22.60
2017,09,04,03,56,22.50
2017,09,04,03,57,22.40
2017,09,04,03,58,22.30
2017,09,04,03,59,22.30
2017,09,04,04,00,22.20
2017,09,04,04,01,22.10
2017,09,04,04,02,22.10
2017,09,04,04,03,22.00
2017,09,04,04,04,21.90
2017,09,04,04,05,21.90
2017,09,04,04,06,21.90
2017,09,04,04,07,21.90
2017,09,04,04,08,21.90
2017,09,04,04,09,21.80
2017,09,04,04,10,21.80
2017,09,04,04,11,21.80
2017,09,04,04,12,21.80
2017,09,04,04,13,21.80
2017,09,04,04,14,21.70
2017,09,04,04,15,21.60
2017,09,04,04,16,21.50
2017,09,04,04,17,21.50
2017,09,04,04,18,21.40
2017,09,04,04,19,21.50
2017,09,04,04,20,21.60
2017,09,04,04,21,21.60
2017,09,04,04,22,21.70
2017,09,04,04,23,21.70
2017,09,04,04,24,21.80
2017,09,04,04,25,21.80
2017,09,04,04,26,21.90
2017,09,04,04,27,21.90
2017,09,04,04,28,21.90
2017,09,04,04,29,21.90
2017,09,04,04,30,21.90
2017,09,04,04,31,21.90
2017,09,04,04,32,21.80
2017,09,04,04,33,21.80
2017,09,04,04,34,21.80
2017,09,04,04,35,21.70
2017,09,04,04,36,21.70
2017,09,04,04,37,21.70
2017,09,04,04,38,21.60
2017,09,04,04,39,21.60
2017,09,04,04,40,21.50
2017,09,04,04,41,21.50
2017,09,04,04,42,21.50
2017,09,04,04,43,21.40
2017,09,04,04,44,21.40
2017,09,04,04,45,21.30
2017,09,04,04,46,21.30
2017,09,04,04,47,21.30
2017,09,04,04,48,21.20
2017,09,04,04,49,21.10
2017,09,04,04,50,21.10
2017,09,04,04,51,21.00
2017,09,04,04,52,20.90
2017,09,04,04,53,20.80
2017,09,04,04,54,20.80
2017,09,04,04,55,20.80
2017,09,04,04,56,20.70
2017,09,04,04,57,20.70
2017,09,04,04,58,20.70
2017,09,04,04,59,20.60
2017,09,04,05,00,20.60
2017,09,04,05,01,20.60
2017,09,04,05,02,20.60
2017,09,04,05,03,20.50
2017,09,04,05,04,20.50
2017,09,04,05,05,20.50
2017,09,04,05,06,20.40
2017,09,04,05,07,20.40
2017,09,04,05,08,20.40
2017,09,04,05,09,20.30
2017,09,04,05,10,20.30
2017,09,04,05,11,20.30
2017,09,04,05,12,20.30
2017,09,04,05,13,20.30
2017,09,04,05,14,20.30
2017,09,04,05,15,20.30
2017,09,04,05,16,20.30
2017,09,04,05,17,20.30
2017,09,04,05,18,20.20
2017,09,04,05,19,20.20
2017,09,04,05,20,20.20
2017,09,04,05,21,20.20
2017,09,04,05,22,20.20
2017,09,04,05,23,20.20
2017,09,04,05,24,20.10
2017,09,04,05,25,20.10
2017,09,04,05,26,20.10
2017,09,04,05,27,20.10
2017,09,04,05,28,20.10
2017,09,04,05,29,20.10
2017,09,04,05,30,20.10
2017,09,04,05,31,20.10
2017,09,04,05,32,20.10
2017,09,04,05,33,20.00
2017,09,04,05,34,20.00
2017,09,04,05,35,20.00
2017,09,04,05,36,19.90
2017,09,04,05,37,19.90
2017,09,04,05,38,19.90
2017,09,04,05,39,19.80
2017,09,04,05,40,19.70
2017,09,04,05,41,19.60
2017,09,04,05,42,19.60
2017,09,04,05,43,19.50
2017,09,04,05,44,19.50
2017,09,04,05,45,19.40
2017,09,04,05,46,19.40
2017,09,04,05,47,19.40
2017,09,04,05,48,19.30
2017,09,04,05,49,19.30
2017,09,04,05,50,19.20
2017,09,04,05,51,19.20
2017,09,04,05,52,19.10
2017,09,04,05,53,19.00
2017,09,04,05,54,19.00
2017,09,04,05,55,18.90
2017,09,04,05,56,18.80
2017,09,04,05,57,18.80
2017,09,04,05,58,18.80
2017,09,04,05,59,18.70
2017,09,04,06,00,18.70
2017,09,04,06,01,18.60
2017,09,04,06,02,18.60
2017,09,04,06,03,18.50
2017,09,04,06,04,18.50
2017,09,04,06,05,18.40
2017,09,04,06,06,18.40
2017,09,04,06,07,18.40
2017,09,04,06,08,18.30
2017,09,04,06,09,18.30
2017,09,04,06,10,18.20
2017,09,04,06,11,18.20
2017,09,04,06,12,18.20
2017,09,04,06,13,18.10
2017,09,04,06,14,18.10
2017,09,04,06,15,18.00
2017,09,04,06,16,18.00
2017,09,04,06,17,17.90
2017,09,04,06,18,17.90
2017,09,04,06,19,17.80
2017,09,04,06,20,17.80
2017,09,04,06,21,17.80
2017,09,04,06,22,17.80
2017,09,04,06,23,17.80
2017,09,04,06,24,17.80
2017,09,04,06,25,17.80
2017,09,04,06,26,17.70
2017,09,04,06,27,17.70
2017,09,04,06,28,17.70
2017,09,04,06,29,17.60
2017,09,04,06,30,17.60
2017,09,04,06,31,17.60
2017,09,04,06,32,17.50
2017,09,04,06,33,17.40
2017,09,04,06,34,17.40
2017,09,04,06,35,17.30
2017,09,04,06,36,17.30
2017,09,04,06,37,17.30
2017,09,04,06,38,17.30
2017,09,04,06,39,17.20
2017,09,04,06,40,17.20
2017,09,04,06,41,17.20
2017,09,04,06,42,17.20
2017,09,04,06,43,17.20
2017,09,04,06,44,17.20
2017,09,04,06,45,17.10
2017,09,04,06,46,17.10
2017,09,04,06,47,17.10
2017,09,04,06,48,17.10
2017,09,04,06,49,17.00
2017,09,04,06,50,17.00
2017,09,04,06,51,17.00
2017,09,04,06,52,17.00
2017,09,04,06,53,17.00
2017,09,04,06,54,17.00
2017,09,04,06,55,17.00
2017,09,04,06,56,17.00
2017,09,04,06,57,17.10
2017,09,04,06,58,17.10
2017,09,04,06,59,17.10
2017,09,04,07,00,17.20
2017,09,04,07,01,17.20
2017,09,04,07,02,17.20
2017,09,04,07,03,17.30
2017,09,04,07,04,17.30
2017,09,04,07,05,17.30
2017,09,04,07,06,17.40
2017,09,04,07,07,17.40
2017,09,04,07,08,17.50
2017,09,04,07,09,17.60
2017,09,04,07,10,17.70
2017,09,04,07,11,17.80
2017,09,04,07,12,17.90
2017,09,04,07,13,18.10
2017,09,04,07,14,18.30
2017,09,04,07,15,18.50
2017,09,04,07,16,18.60
2017,09,04,07,17,18.80
2017,09,04,07,18,18.90
2017,09,04,07,19,19.00
2017,09,04,07,20,19.10
2017,09,04,07,21,19.20
2017,09,04,07,22,19.30
2017,09,04,07,23,19.40
2017,09,04,07,24,19.50
2017,09,04,07,25,19.60
2017,09,04,07,26,19.60
2017,09,04,07,27,19.70
2017,09,04,07,28,19.80
2017,09,04,07,29,19.90
2017,09,04,07,30,20.00
2017,09,04,07,31,20.10
2017,09,04,07,32,20.20
2017,09,04,07,33,20.30
2017,09,04,07,34,20.40
2017,09,04,07,35,20.50
2017,09,04,07,36,20.60
2017,09,04,07,37,20.60
2017,09,04,07,38,20.70
2017,09,04,07,39,20.80
2017,09,04,07,40,20.90
2017,09,04,07,41,21.00
2017,09,04,07,42,21.00
2017,09,04,07,43,21.10
2017,09,04,07,44,21.10
2017,09,04,07,45,21.10
2017,09,04,07,46,21.10
2017,09,04,07,47,21.10
2017,09,04,07,48,21.10
2017,09,04,07,49,21.10
2017,09,04,07,50,21.10
2017,09,04,07,51,21.20
2017,09,04,07,52,21.20
2017,09,04,07,53,21.20
2017,09,04,07,54,21.20
2017,09,04,07,55,21.20
2017,09,04,07,56,21.20
2017,09,04,07,57,21.30
2017,09,04,07,58,21.30
2017,09,04,07,59,21.30
2017,09,04,08,00,21.30
2017,09,04,08,01,21.30
2017,09,04,08,02,21.40
2017,09,04,08,03,21.40
2017,09,04,08,04,21.40
2017,09,04,08,05,21.50
2017,09,04,08,06,21.50
2017,09,04,08,07,21.50
2017,09,04,08,08,21.60
2017,09,04,08,09,21.60
2017,09,04,08,10,21.60
2017,09,04,08,11,21.60
2017,09,04,08,12,21.60
2017,09,04,08,13,21.70
2017,09,04,08,14,21.70
2017,09,04,08,15,21.70
2017,09,04,08,16,21.80
2017,09,04,08,17,21.80
2017,09,04,08,18,21.80
2017,09,04,08,19,21.90
2017,09,04,08,20,21.90
2017,09,04,08,21,21.90
2017,09,04,08,22,22.00
2017,09,04,08,23,22.00
2017,09,04,08,24,22.10
2017,09,04,08,25,22.20
2017,09,04,08,26,22.20
2017,09,04,08,27,22.20
2017,09,04,08,28,22.30
2017,09,04,08,29,22.30
2017,09,04,08,30,22.30
2017,09,04,08,31,22.40
2017,09,04,08,32,22.40
2017,09,04,08,33,22.40
2017,09,04,08,34,22.50
2017,09,04,08,35,22.50
2017,09,04,08,36,22.60
2017,09,04,08,37,22.60
2017,09,04,08,38,22.60
2017,09,04,08,39,22.60
2017,09,04,08,40,22.60
2017,09,04,08,41,22.70
2017,09,04,08,42,22.70
2017,09,04,08,43,22.70
2017,09,04,08,44,22.70
2017,09,04,08,45,22.80
2017,09,04,08,46,22.80
2017,09,04,08,47,22.80
2017,09,04,08,48,22.80
2017,09,04,08,49,22.80
2017,09,04,08,50,22.90
2017,09,04,08,51,22.90
2017,09,04,08,52,22.90
2017,09,04,08,53,22.90
2017,09,04,08,54,23.00
2017,09,04,08,55,23.00
2017,09,04,08,56,23.10
2017,09,04,08,57,23.10
2017,09,04,08,58,23.10
2017,09,04,08,59,23.20
2017,09,04,09,00,23.20
2017,09,04,09,01,23.20
2017,09,04,09,02,23.20
2017,09,04,09,03,23.20
2017,09,04,09,04,23.30
2017,09,04,09,05,23.30
2017,09,04,09,06,23.40
2017,09,04,09,07,23.40
2017,09,04,09,08,23.40
2017,09,04,09,09,23.50
2017,09,04,09,10,23.50
2017,09,04,09,11,23.60
2017,09,04,09,12,23.60
2017,09,04,09,13,23.60
2017,09,04,09,14,23.70
2017,09,04,09,15,23.70
2017,09,04,09,16,23.70
2017,09,04,09,17,23.80
2017,09,04,09,18,23.90
2017,09,04,09,19,23.90
2017,09,04,09,20,23.90
2017,09,04,09,21,23.90
2017,09,04,09,22,23.90
2017,09,04,09,23,23.90
2017,09,04,09,24,23.90
2017,09,04,09,25,23.90
2017,09,04,09,26,23.90
2017,09,04,09,27,23.80
2017,09,04,09,28,23.80
2017,09,04,09,29,23.80
2017,09,04,09,30,23.80
2017,09,04,09,31,23.80
2017,09,04,09,32,23.80
2017,09,04,09,33,23.90
2017,09,04,09,34,23.90
2017,09,04,09,35,23.90
2017,09,04,09,36,23.90
2017,09,04,09,37,24.00
2017,09,04,09,38,24.10
2017,09,04,09,39,24.10
2017,09,04,09,40,24.20
2017,09,04,09,41,24.20
2017,09,04,09,42,24.30
2017,09,04,09,43,24.30
2017,09,04,09,44,24.40
2017,09,04,09,45,24.40
2017,09,04,09,46,24.50
2017,09,04,09,47,24.50
2017,09,04,09,48,24.60
2017,09,04,09,49,24.60
2017,09,04,09,50,24.60
2017,09,04,09,51,24.60
2017,09,04,09,52,24.60
2017,09,04,09,53,24.70
2017,09,04,09,54,24.70
2017,09,04,09,55,24.70
2017,09,04,09,56,24.70
2017,09,04,09,57,24.80
2017,09,04,09,58,24.80
2017,09,04,09,59,24.80
2017,09,04,10,00,24.80
2017,09,04,10,01,24.80
2017,09,04,10,02,24.90
2017,09,04,10,03,24.90
2017,09,04,10,04,24.90
2017,09,04,10,05,24.90
2017,09,04,10,06,24.90
2017,09,04,10,07,24.90
2017,09,04,10,08,24.90
2017,09,04,10,09,24.90
2017,09,04,10,10,24.90
2017,09,04,10,11,24.90
2017,09,04,10,12,24.90
2017,09,04,10,13,25.00
2017,09,04,10,14,25.00
2017,09,04,10,15,25.00
2017,09,04,10,16,25.00
2017,09,04,10,17,25.00
2017,09,04,10,18,25.00
2017,09,04,10,19,25.10
2017,09,04,10,20,25.10
2017,09,04,10,21,25.20
2017,09,04,10,22,25.30
2017,09,04,10,23,25.30
2017,09,04,10,24,25.40
2017,09,04,10,25,25.40
2017,09,04,10,26,25.50
2017,09,04,10,27,25.50
2017,09,04,10,28,25.60
2017,09,04,10,29,25.60
2017,09,04,10,30,25.70
2017,09,04,10,31,25.70
2017,09,04,10,32,25.70
2017,09,04,10,33,25.80
2017,09,04,10,34,25.90
2017,09,04,10,35,25.90
2017,09,04,10,36,25.90
2017,09,04,10,37,25.90
2017,09,04,10,38,25.80
2017,09,04,10,39,25.80
2017,09,04,10,40,25.80
2017,09,04,10,41,25.80
2017,09,04,10,42,25.90
2017,09,04,10,43,25.90
2017,09,04,10,44,26.00
2017,09,04,10,45,26.00
2017,09,04,10,46,26.10
2017,09,04,10,47,26.00
2017,09,04,10,48,26.00
2017,09,04,10,49,25.90
2017,09,04,10,50,25.90
2017,09,04,10,51,26.00
2017,09,04,10,52,26.00
2017,09,04,10,53,26.10
2017,09,04,10,54,26.10
2017,09,04,10,55,26.20
2017,09,04,10,56,26.20
2017,09,04,10,57,26.30
2017,09,04,10,58,26.30
2017,09,04,10,59,26.30
2017,09,04,11,00,26.30
2017,09,04,11,01,26.30
2017,09,04,11,02,26.30
2017,09,04,11,03,26.30
2017,09,04,11,04,26.40
2017,09,04,11,05,26.40
2017,09,04,11,06,26.50
2017,09,04,11,07,26.50
2017,09,04,11,08,26.50
2017,09,04,11,09,26.50
2017,09,04,11,10,26.60
2017,09,04,11,11,26.60
2017,09,04,11,12,26.60
2017,09,04,11,13,26.60
2017,09,04,11,14,26.60
2017,09,04,11,15,26.60
2017,09,04,11,16,26.60
2017,09,04,11,17,26.50
2017,09,04,11,18,26.50
2017,09,04,11,19,26.50
2017,09,04,11,20,26.50
2017,09,04,11,21,26.50
2017,09,04,11,22,26.50
2017,09,04,11,23,26.40
2017,09,04,11,24,26.40
2017,09,04,11,25,26.40
2017,09,04,11,26,26.40
2017,09,04,11,27,26.40
2017,09,04,11,28,26.40
2017,09,04,11,29,26.40
2017,09,04,11,30,26.40
2017,09,04,11,31,26.30
2017,09,04,11,32,26.30
2017,09,04,11,33,26.20
2017,09,04,11,34,26.20
2017,09,04,11,35,26.20
2017,09,04,11,36,26.20
2017,09,04,11,37,26.20
2017,09,04,11,38,26.20
2017,09,04,11,39,26.20
2017,09,04,11,40,26.20
2017,09,04,11,41,26.30
2017,09,04,11,42,26.30
2017,09,04,11,43,26.40
2017,09,04,11,44,26.50
2017,09,04,11,45,26.60
2017,09,04,11,46,26.60
2017,09,04,11,47,26.70
2017,09,04,11,48,26.70
2017,09,04,11,49,26.70
2017,09,04,11,50,26.80
2017,09,04,11,51,26.80
2017,09,04,11,52,26.80
2017,09,04,11,53,26.80
2017,09,04,11,54,26.80
2017,09,04,11,55,26.80
2017,09,04,11,56,26.80
2017,09,04,11,57,26.90
2017,09,04,11,58,27.00
2017,09,04,11,59,27.00
2017,09,04,12,00,26.90
2017,09,04,12,01,26.80
2017,09,04,12,02,26.80
2017,09,04,12,03,26.80
2017,09,04,12,04,26.80
2017,09,04,12,05,26.80
2017,09,04,12,06,26.80
2017,09,04,12,07,26.80
2017,09,04,12,08,26.80
2017,09,04,12,09,26.90
2017,09,04,12,10,27.00
2017,09,04,12,11,27.00
2017,09,04,12,12,27.00
2017,09,04,12,13,27.00
2017,09,04,12,14,27.00
2017,09,04,12,15,26.90
2017,09,04,12,16,26.90
2017,09,04,12,17,27.00
2017,09,04,12,18,27.00
2017,09,04,12,19,27.10
2017,09,04,12,20,27.00
2017,09,04,12,21,27.00
2017,09,04,12,22,27.00
2017,09,04,12,23,27.10
2017,09,04,12,24,27.10
2017,09,04,12,25,27.20
2017,09,04,12,26,27.20
2017,09,04,12,27,27.30
2017,09,04,12,28,27.30
2017,09,04,12,29,27.40
2017,09,04,12,30,27.40
2017,09,04,12,31,27.40
2017,09,04,12,32,27.40
2017,09,04,12,33,27.40
2017,09,04,12,34,27.40
2017,09,04,12,35,27.40
2017,09,04,12,36,27.50
2017,09,04,12,37,27.50
2017,09,04,12,38,27.50
2017,09,04,12,39,27.60
2017,09,04,12,40,27.50
2017,09,04,12,41,27.50
2017,09,04,12,42,27.50
2017,09,04,12,43,27.60
2017,09,04,12,44,27.60
2017,09,04,12,45,27.60
2017,09,04,12,46,27.60
2017,09,04,12,47,27.60
2017,09,04,12,48,27.60
2017,09,04,12,49,27.50
2017,09,04,12,50,27.50
2017,09,04,12,51,27.60
2017,09,04,12,52,27.60
2017,09,04,12,53,27.60
2017,09,04,12,54,27.60
2017,09,04,12,55,27.60
2017,09,04,12,56,27.60
2017,09,04,12,57,27.60
2017,09,04,12,58,27.60
2017,09,04,12,59,27.60
2017,09,04,13,00,27.60
2017,09,04,13,01,27.60
2017,09,04,13,02,27.60
2017,09,04,13,03,27.70
2017,09,04,13,04,27.80
2017,09,04,13,05,27.90
2017,09,04,13,06,27.90
2017,09,04,13,07,28.00
2017,09,04,13,08,28.10
2017,09,04,13,09,28.30
2017,09,04,13,10,28.40
2017,09,04,13,11,28.50
2017,09,04,13,12,28.50
2017,09,04,13,13,28.60
2017,09,04,13,14,28.60
2017,09,04,13,15,28.50
2017,09,04,13,16,28.50
2017,09,04,13,17,28.40
2017,09,04,13,18,28.30
2017,09,04,13,19,28.30
2017,09,04,13,20,28.40
2017,09,04,13,21,28.40
2017,09,04,13,22,28.40
2017,09,04,13,23,28.30
2017,09,04,13,24,28.30
2017,09,04,13,25,28.30
2017,09,04,13,26,28.30
2017,09,04,13,27,28.30
2017,09,04,13,28,28.30
2017,09,04,13,29,28.30
2017,09,04,13,30,28.30
2017,09,04,13,31,28.30
2017,09,04,13,32,28.40
2017,09,04,13,33,28.40
2017,09,04,13,34,28.40
2017,09,04,13,35,28.50
2017,09,04,13,36,28.50
2017,09,04,13,37,28.60
2017,09,04,13,38,28.70
2017,09,04,13,39,28.60
2017,09,04,13,40,28.60
2017,09,04,13,41,28.70
2017,09,04,13,42,28.70
2017,09,04,13,43,28.70
2017,09,04,13,44,28.70
2017,09,04,13,45,28.70
2017,09,04,13,46,28.70
2017,09,04,13,47,28.70
2017,09,04,13,48,28.70
2017,09,04,13,49,28.70
2017,09,04,13,50,28.70
2017,09,04,13,51,28.80
2017,09,04,13,52,28.80
2017,09,04,13,53,28.90
2017,09,04,13,54,28.90
2017,09,04,13,55,28.90
2017,09,04,13,56,28.90
2017,09,04,13,57,28.90
2017,09,04,13,58,29.00
2017,09,04,13,59,29.10
2017,09,04,14,00,29.10
2017,09,04,14,01,29.10
2017,09,04,14,02,29.20
2017,09,04,14,03,29.10
2017,09,04,14,04,29.10
2017,09,04,14,05,29.20
2017,09,04,14,06,29.20
2017,09,04,14,07,29.20
2017,09,04,14,08,29.20
2017,09,04,14,09,29.20
2017,09,04,14,10,29.30
2017,09,04,14,11,29.30
2017,09,04,14,12,29.40
2017,09,04,14,13,29.50
2017,09,04,14,14,29.60
2017,09,04,14,15,29.60
2017,09,04,14,16,29.70
2017,09,04,14,17,29.70
2017,09,04,14,18,29.70
2017,09,04,14,19,29.70
2017,09,04,14,20,29.70
2017,09,04,14,21,29.70
2017,09,04,14,22,29.70
2017,09,04,14,23,29.70
2017,09,04,14,24,29.70
2017,09,04,14,25,29.70
2017,09,04,14,26,29.70
2017,09,04,14,27,29.80
2017,09,04,14,28,29.80
2017,09,04,14,29,29.80
2017,09,04,14,30,29.80
2017,09,04,14,31,29.70
2017,09,04,14,32,29.70
2017,09,04,14,33,29.70
2017,09,04,14,34,29.80
2017,09,04,14,35,29.70
2017,09,04,14,36,29.80
2017,09,04,14,37,29.80
2017,09,04,14,38,29.90
2017,09,04,14,39,29.90
2017,09,04,14,40,29.90
2017,09,04,14,41,29.90
2017,09,04,14,42,29.90
2017,09,04,14,43,29.90
2017,09,04,14,44,29.90
2017,09,04,14,45,29.90
2017,09,04,14,46,29.90
2017,09,04,14,47,29.90
2017,09,04,14,48,30.00
2017,09,04,14,49,30.00
2017,09,04,14,50,30.10
2017,09,04,14,51,30.20
2017,09,04,14,52,30.20
2017,09,04,14,53,30.30
2017,09,04,14,54,30.30
2017,09,04,14,55,30.30
2017,09,04,14,56,30.20
2017,09,04,14,57,30.20
2017,09,04,14,58,30.20
2017,09,04,14,59,30.10
2017,09,04,15,00,30.10
2017,09,04,15,01,30.10
2017,09,04,15,02,30.10
2017,09,04,15,03,30.00
2017,09,04,15,04,29.90
2017,09,04,15,05,29.90
2017,09,04,15,06,30.00
2017,09,04,15,07,30.00
2017,09,04,15,08,30.10
2017,09,04,15,09,30.10
2017,09,04,15,10,30.10
2017,09,04,15,11,30.10
2017,09,04,15,12,30.20
2017,09,04,15,13,30.20
2017,09,04,15,14,30.20
2017,09,04,15,15,30.20
2017,09,04,15,16,30.20
2017,09,04,15,17,30.20
2017,09,04,15,18,30.20
2017,09,04,15,19,30.20
2017,09,04,15,20,30.20
2017,09,04,15,21,30.20
2017,09,04,15,22,30.20
2017,09,04,15,23,30.30
2017,09,04,15,24,30.30
2017,09,04,15,25,30.30
2017,09,04,15,26,30.30
2017,09,04,15,27,30.30
2017,09,04,15,28,30.30
2017,09,04,15,29,30.30
2017,09,04,15,30,30.20
2017,09,04,15,31,30.20
2017,09,04,15,32,30.20
2017,09,04,15,33,30.30
2017,09,04,15,34,30.40
2017,09,04,15,35,30.50
2017,09,04,15,36,30.60
2017,09,04,15,37,30.60
2017,09,04,15,38,30.70
2017,09,04,15,39,30.70
2017,09,04,15,40,30.70
2017,09,04,15,41,30.70
2017,09,04,15,42,30.80
2017,09,04,15,43,30.80
2017,09,04,15,44,30.80
2017,09,04,15,45,30.80
2017,09,04,15,46,30.80
2017,09,04,15,47,30.90
2017,09,04,15,48,30.90
2017,09,04,15,49,30.90
2017,09,04,15,50,30.90
2017,09,04,15,51,30.80
2017,09,04,15,52,30.80
2017,09,04,15,53,30.90
2017,09,04,15,54,30.90
2017,09,04,15,55,30.80
2017,09,04,15,56,30.90
2017,09,04,15,57,30.90
2017,09,04,15,58,30.90
2017,09,04,15,59,31.00
2017,09,04,16,00,31.00
2017,09,04,16,01,31.00
2017,09,04,16,02,31.00
2017,09,04,16,03,31.00
2017,09,04,16,04,31.10
2017,09,04,16,05,31.10
2017,09,04,16,06,31.10
2017,09,04,16,07,31.00
2017,09,04,16,08,31.00
2017,09,04,16,09,31.00
2017,09,04,16,10,31.00
2017,09,04,16,11,31.00
2017,09,04,16,12,30.90
2017,09,04,16,13,31.00
2017,09,04,16,14,30.90
2017,09,04,16,15,30.90
2017,09,04,16,16,31.00
2017,09,04,16,17,30.90
2017,09,04,16,18,31.00
2017,09,04,16,19,31.10
2017,09,04,16,20,31.10
2017,09,04,16,21,31.10
2017,09,04,16,22,31.10
2017,09,04,16,23,31.10
2017,09,04,16,24,31.10
2017,09,04,16,25,31.10
2017,09,04,16,26,31.00
2017,09,04,16,27,30.90
2017,09,04,16,28,30.90
2017,09,04,16,29,30.90
2017,09,04,16,30,30.90
2017,09,04,16,31,30.90
2017,09,04,16,32,30.80
2017,09,04,16,33,30.80
2017,09,04,16,34,30.80
2017,09,04,16,35,30.80
2017,09,04,16,36,30.80
2017,09,04,16,37,30.80
2017,09,04,16,38,30.80
2017,09,04,16,39,30.80
2017,09,04,16,40,30.80
2017,09,04,16,41,30.80
2017,09,04,16,42,30.80
2017,09,04,16,43,30.90
2017,09,04,16,44,30.90
2017,09,04,16,45,30.90
2017,09,04,16,46,30.90
2017,09,04,16,47,30.90
2017,09,04,16,48,30.90
2017,09,04,16,49,30.90
2017,09,04,16,50,30.90
2017,09,04,16,51,30.90
2017,09,04,16,52,30.90
2017,09,04,16,53,30.90
2017,09,04,16,54,30.90
2017,09,04,16,55,31.00
2017,09,04,16,56,31.00
2017,09,04,16,57,30.90
2017,09,04,16,58,30.90
2017,09,04,16,59,30.90
2017,09,04,17,00,30.90
2017,09,04,17,01,31.00
2017,09,04,17,02,31.10
2017,09,04,17,03,31.10
2017,09,04,17,04,31.20
2017,09,04,17,05,31.30
2017,09,04,17,06,31.30
2017,09,04,17,07,31.30
2017,09,04,17,08,31.30
2017,09,04,17,09,31.40
2017,09,04,17,10,31.40
2017,09,04,17,11,31.40
2017,09,04,17,12,31.40
2017,09,04,17,13,31.50
2017,09,04,17,14,31.50
2017,09,04,17,15,31.60
2017,09,04,17,16,31.60
2017,09,04,17,17,31.70
2017,09,04,17,18,31.70
2017,09,04,17,19,31.60